User: anonymous   Login
Location: Hohenfelde
(53.8441°N, 9.6220°E)
Time: 22:33:47
(UTC+00:00)
Language:

Cosmos 2100 Rocket - Orbit

View from above orbital plane
View from above orbital plane
View from above satellite
View from above satellite

Ground track
Ground track

The orbit data is extracted from the following two-line orbital elements,

1 20805U 90083B   20270.20084358 -.00000068  00000-0 -85737-4 0  9996
2 20805  82.9336 252.1804 0029294 291.0231  79.2142 13.75900947508007
Epoch (UTC): 26 September 2020 04:49:12
Eccentricity: 0.0029294
inclination: 82.9336°
perigee height: 957 km
apogee height: 1000 km
right ascension of ascending node: 252.1804°
argument of perigee: 291.0231°
revolutions per day: 13.75900947
mean anomaly at epoch: 79.2142°
orbit number at epoch: 50800

The dashed part of the orbit path shows where the satellite is in the earth's shadow,  

DLR